Location: Lawrence
(38.9720°N, 95.2350°W)
Time: 20:53:16
(UTC-06:00)

Amateur Radio Satellites - All Passes

Search period start: 27 November 2014 20:23
Search period end: 28 November 2014 20:23
Location: Lawrence, 38.9720°N, 95.2350°W

Satellite Date Start Highest point End Downlink Frequencies (MHz)
Time Altitude Azimuth
DOVE 4 27 Nov 20:24:01 20:28:08 34° 72° (ENE) 20:32:04 437.250
CUTE 1.7 + AOD 2 27 Nov 20:28:18 20:32:29 74° 76° (ENE) 20:36:43 437.475
ZACube-1 27 Nov 20:36:38 20:38:18 12° 65° (ENE) 20:39:57 437.345
PHONESAT 2.4 27 Nov 20:43:01 20:44:02 11° 217° (SW) 20:45:03 2401.200-2431.200
VELOX 1 27 Nov 20:45:22 20:46:30 11° 62° (ENE) 20:47:37 145.980
CINEMA 3 27 Nov 20:45:44 20:49:40 34° 72° (ENE) 20:53:31 145.822/145.860
PCSat 27 Nov 20:47:00 20:51:19 24° 311° (NW) 20:55:40 145.827
BEESAT 3 27 Nov 20:52:33 20:55:54 24° 311° (NW) 20:59:19 437.485
SEEDS 27 Nov 20:58:57 21:03:03 55° 260° (W) 21:07:12 437.485
UKube-1 27 Nov 21:02:00 21:06:13 52° 73° (ENE) 21:10:28 .
GONETS M04 27 Nov 21:06:38 21:13:42 28° 277° (W) 21:20:45
DELFI C3 27 Nov 21:07:09 21:11:07 53° 74° (ENE) 21:15:07 145.870
FUNcube-1 27 Nov 21:08:58 21:12:32 28° 70° (ENE) 21:16:04 145.935
BEESAT 2 27 Nov 21:10:09 21:13:07 19° 313° (NW) 21:16:08 435.950
AISAT 27 Nov 21:10:22 21:13:43 21° 67° (ENE) 21:17:03 437.250
Oscar 11 27 Nov 21:11:45 21:16:01 75° 76° (ENE) 21:20:20 145.826/435.025
AAUSAT CUBESAT 2 27 Nov 21:11:51 21:15:54 52° 260° (W) 21:19:59 437.432
HO-68 27 Nov 21:14:12 21:20:58 44° 261° (W) 21:27:48 435.675
GOMX 1 27 Nov 21:14:32 21:19:09 48° 260° (W) 21:23:30 467.674
50 SAT 27 Nov 21:15:29 21:17:58 16° 67° (ENE) 21:20:26 437.505
RS-15 27 Nov 21:24:44 21:31:33 18° 9° (N) 21:38:29 29.354- 29.394
COMPASS 1 27 Nov 21:29:05 21:32:42 29° 264° (W) 21:36:22 437.405
CANX-2 27 Nov 21:31:08 21:34:10 19° 266° (W) 21:37:14 2200.000
HUMSAT D 27 Nov 21:38:36 21:42:23 36° 72° (ENE) 21:46:09 437.325/437.525
UWE-3 27 Nov 21:39:23 21:43:37 76° 76° (ENE) 21:47:47 435.000/436.395/437.385
DX 1 27 Nov 21:39:31 21:43:49 56° 259° (W) 21:48:09 434.975-435.025
CUBEBUG 2 27 Nov 21:43:20 21:47:36 82° 258° (WSW) 21:51:47 437.445
AIST 2 27 Nov 21:54:04 21:56:36 15° 316° (NW) 21:59:10 435.215
BRITE-PL 27 Nov 21:55:25 21:58:10 15° 267° (W) 22:00:49 437.365/2234.400
DOVE 4 27 Nov 22:02:36 22:05:58 20° 265° (W) 22:09:12 437.250
POLYITAN 1 27 Nov 22:07:09 22:08:29 11° 91° (E) 22:09:48 437.675
QB50P2 27 Nov 22:08:11 22:09:42 12° 91° (E) 22:11:13 145.880/145.840
ZACube-1 27 Nov 22:10:06 22:14:13 54° 260° (W) 22:18:19 437.345
ANTELSAT 27 Nov 22:10:25 22:13:49 21° 95° (E) 22:17:14 437.575/2403.000
DUCHIFAT 1 27 Nov 22:12:29 22:14:26 13° 92° (E) 22:16:22 145.980
VELOX 1 27 Nov 22:18:00 22:22:28 73° 258° (WSW) 22:26:56 145.980
ESTCUBE 1 27 Nov 22:23:55 22:28:16 47° 73° (ENE) 22:32:39 437.505/2401.250
CINEMA 3 27 Nov 22:23:56 22:26:58 18° 266° (W) 22:29:57 145.822/145.860
ISS 27 Nov 22:26:09 22:29:18 45° 137° (SE) 22:32:27 145.825
NANOSAT C BR1 27 Nov 22:31:06 22:34:24 22° 95° (E) 22:37:40 145.865
SPROUT 27 Nov 22:33:30 22:35:15 12° 64° (ENE) 22:37:01 437.525
UKube-1 27 Nov 22:40:41 22:42:41 13° 268° (W) 22:44:40 .
QB50P1 27 Nov 22:41:00 22:44:40 28° 97° (E) 22:48:19 145.935-145.965
BUGSAT 1 27 Nov 22:41:19 22:44:32 22° 95° (E) 22:47:42 437.445
FUNcube-1 27 Nov 22:45:37 22:48:52 22° 265° (W) 22:52:07 145.935
DELFI C3 27 Nov 22:45:46 22:46:44 11° 269° (W) 22:47:43 145.870
AISAT 27 Nov 22:46:02 22:50:07 35° 262° (W) 22:54:13 437.250
50 SAT 27 Nov 22:49:14 22:52:58 37° 262° (W) 22:56:43 437.505
CUBEBUG 1 27 Nov 22:50:45 22:55:12 90° 75° (ENE) 22:59:40 437.445
TIGRISAT 27 Nov 23:02:24 23:06:51 77° 102° (ESE) 23:11:25 435.000
POPSAT HIP 1 27 Nov 23:05:43 23:09:53 56° 100° (E) 23:14:01 437.405
CUSAT 1 27 Nov 23:07:46 23:12:19 33° 78° (ENE) 23:18:07 437.405
HUMSAT D 27 Nov 23:15:42 23:18:19 16° 267° (W) 23:20:56 437.325/437.525
UNISAT 6 27 Nov 23:17:15 23:21:43 72° 285° (WNW) 23:26:16 437.425
JUGNU 27 Nov 23:28:02 23:28:22 10° 173° (S) 23:28:41 437.505
RS-15 27 Nov 23:38:10 23:48:26 39° 42° (NE) 23:59:02 29.354- 29.394
AUBIESAT-1 27 Nov 23:39:08 23:42:07 19° 60° (ENE) 23:45:16 437.475
POLYITAN 1 27 Nov 23:40:37 23:44:45 55° 286° (WNW) 23:48:53 437.675
QB50P2 27 Nov 23:41:48 23:45:56 53° 286° (WNW) 23:50:03 145.880/145.840
DANDE 27 Nov 23:42:28 23:47:13 58° 80° (E) 23:53:36 436.750
M-CUBED/EXP-1 PRIME 27 Nov 23:45:24 23:48:45 24° 62° (ENE) 23:52:20 437.505
DUCHIFAT 1 27 Nov 23:46:30 23:50:34 48° 287° (WNW) 23:54:36 145.980
ANTELSAT 27 Nov 23:46:36 23:50:40 35° 289° (WNW) 23:54:48 437.575/2403.000
MaSat-1 27 Nov 23:47:39 23:49:15 16° 60° (ENE) 23:50:53 437.345
TISAT 1 27 Nov 23:50:08 23:54:24 78° 258° (WSW) 23:58:40 437.305
ITUPSAT 1 27 Nov 23:59:23 00:02:49 20° 65° (ENE) 00:06:16 437.325
ESTCUBE 1 28 Nov 00:02:42 00:05:23 15° 268° (W) 00:08:05 437.505/2401.250
ISS 28 Nov 00:03:22 00:06:04 23° 333° (NNW) 00:08:46 145.825
SPROUT 28 Nov 00:06:35 00:10:50 59° 259° (W) 00:15:06 437.525
NANOSAT C BR1 28 Nov 00:06:38 00:10:16 28° 290° (WNW) 00:13:53 145.865
SWISSCUBE 28 Nov 00:08:49 00:12:49 27° 68° (ENE) 00:16:50 437.505
BUGSAT 1 28 Nov 00:16:36 00:19:59 26° 291° (WNW) 00:23:20 437.445
QB50P1 28 Nov 00:17:08 00:20:25 22° 292° (WNW) 00:23:41 145.935-145.965
BEESAT 28 Nov 00:38:41 00:43:18 49° 72° (ENE) 00:47:56 436.000
TIGRISAT 28 Nov 00:42:22 00:43:00 10° 297° (WNW) 00:43:39 435.000
POPSAT HIP 1 28 Nov 00:43:34 00:45:18 12° 296° (WNW) 00:47:01 437.405
CUSAT 1 28 Nov 00:50:53 00:55:22 30° 265° (W) 01:01:01 437.405
AUBIESAT-1 28 Nov 01:12:56 01:16:45 39° 258° (WSW) 01:20:56 437.475
JUGNU 28 Nov 01:15:05 01:16:26 11° 184° (S) 01:17:48 437.505
Oscar 19 28 Nov 01:15:20 01:19:56 32° 97° (E) 01:24:30 437.125/150
M-CUBED/EXP-1 PRIME 28 Nov 01:20:03 01:23:38 30° 260° (W) 01:27:32 437.505
STARS 28 Nov 01:23:46 01:26:55 20° 67° (ENE) 01:30:05 437.465
DANDE 28 Nov 01:27:24 01:30:38 17° 268° (W) 01:34:23 436.750
SRMSAT 28 Nov 01:29:38 01:31:20 11° 177° (S) 01:33:02 437.500
ITUPSAT 1 28 Nov 01:35:49 01:40:23 43° 261° (W) 01:44:59 437.325
SWISSCUBE 28 Nov 01:46:20 01:50:33 31° 263° (W) 01:54:49 437.505
RS-15 28 Nov 01:50:25 02:01:33 68° 245° (WSW) 02:13:11 29.354- 29.394
KKS-1 28 Nov 02:07:28 02:11:56 88° 77° (ENE) 02:16:24 437.445
ITAMSAT 1 28 Nov 02:13:03 02:17:58 42° 99° (E) 02:22:50 435.822/435.867
YUBILEINY 28 Nov 02:17:16 02:25:54 64° 92° (E) 02:34:31 435.215
BEESAT 28 Nov 02:18:26 02:21:24 16° 268° (W) 02:24:22 436.000
SO-50 28 Nov 02:28:47 02:32:24 24° 111° (ESE) 02:36:06 436.795
Oscar 19 28 Nov 02:54:44 02:59:10 30° 292° (WNW) 03:03:35 437.125/150
Gurwin Techsat 1B 28 Nov 02:57:51 03:03:09 67° 102° (ESE) 03:08:25 435.225
STARS 28 Nov 02:59:06 03:03:09 36° 262° (W) 03:07:13 437.465
AO-7 28 Nov 03:17:08 03:23:01 21° 93° (E) 03:28:52 29.400- 29.500
HORYU 2 28 Nov 03:18:22 03:22:41 45° 99° (E) 03:27:00 437.375
SRMSAT 28 Nov 03:19:14 03:19:34 10° 187° (S) 03:19:55 437.500
ISS 28 Nov 03:20:11 03:21:32 12° 14° (NNE) 03:22:53 145.825
MOZHAYETS 4 28 Nov 03:29:28 03:32:32 18° 66° (ENE) 03:35:37
BEESAT 3 28 Nov 03:35:30 03:38:19 17° 46° (NE) 03:41:05 437.485
PCSat 28 Nov 03:51:39 03:56:32 33° 53° (NE) 04:01:22 145.827
BEESAT 2 28 Nov 03:52:29 03:55:48 22° 48° (NE) 03:59:05 435.950
ITAMSAT 1 28 Nov 03:53:12 03:57:09 23° 295° (WNW) 04:01:06 435.822/435.867
RS-15 28 Nov 04:07:37 04:11:47 13° 264° (W) 04:16:01 29.354- 29.394
SO-50 28 Nov 04:08:35 04:12:44 35° 309° (NW) 04:17:02 436.795
YUBILEINY 28 Nov 04:16:09 04:23:17 27° 291° (WNW) 04:30:27 435.215
AIST 2 28 Nov 04:36:52 04:40:41 30° 51° (NE) 04:44:27 435.215
Gurwin Techsat 1B 28 Nov 04:39:28 04:42:31 16° 298° (WNW) 04:45:34 435.225
ISS 28 Nov 04:55:44 04:58:53 41° 33° (NNE) 05:02:01 145.825
HORYU 2 28 Nov 04:56:08 04:59:00 17° 295° (WNW) 05:01:52 437.375
MOZHAYETS 4 28 Nov 05:05:01 05:09:24 44° 262° (W) 05:13:49
STRAND 1 28 Nov 05:06:04 05:09:04 16° 62° (ENE) 05:12:03 437.568
AO-7 28 Nov 05:08:10 05:16:33 79° 290° (WNW) 05:24:53 29.400- 29.500
O/OREOS (USA 219) 28 Nov 05:12:37 05:16:48 40° 106° (ESE) 05:21:00 437.305
BEESAT 3 28 Nov 05:12:46 05:16:50 51° 243° (WSW) 05:20:50 437.485
CUBESAT XI-V 28 Nov 05:17:17 05:20:29 18° 66° (ENE) 05:23:40 437.345
JAS-2 28 Nov 05:20:47 05:27:35 57° 99° (E) 05:33:33 435.910
PRISM 28 Nov 05:26:25 05:30:32 58° 74° (ENE) 05:34:43 437.425
BEESAT 2 28 Nov 05:30:19 05:34:11 36° 245° (WSW) 05:38:00 435.950
PCSat 28 Nov 05:35:03 05:39:54 34° 250° (WSW) 05:44:43 145.827
CUTE-I 28 Nov 05:51:03 05:55:22 25° 95° (E) 05:59:38 437.470
AIST 1 28 Nov 05:55:11 05:58:29 21° 74° (ENE) 06:01:46
AIST 2 28 Nov 06:15:39 06:19:12 26° 248° (WSW) 06:22:43 435.215
GONETS M04 28 Nov 06:18:52 06:21:21 11° 74° (ENE) 06:23:50
ISS 28 Nov 06:32:51 06:35:19 20° 229° (SW) 06:37:47 145.825
STRAND 1 28 Nov 06:42:36 06:47:42 63° 258° (WSW) 06:52:49 437.568
Cubesat XI-IV 28 Nov 06:49:33 06:54:54 90° 285° (WNW) 07:00:12 437.490
CUBESAT XI-V 28 Nov 06:53:02 06:57:33 45° 261° (W) 07:02:06 437.345
O/OREOS (USA 219) 28 Nov 06:53:09 06:56:22 19° 302° (WNW) 06:59:35 437.305
AO-7 28 Nov 07:03:00 07:08:01 18° 309° (NW) 07:13:03 29.400- 29.500
PRISM 28 Nov 07:05:30 07:06:27 11° 269° (W) 07:07:24 437.425
JAS-2 28 Nov 07:06:40 07:12:01 24° 299° (WNW) 07:16:55 435.910
CUTE-I 28 Nov 07:30:37 07:35:31 39° 291° (WNW) 07:40:23 437.470
AIST 1 28 Nov 07:32:22 07:36:10 30° 270° (W) 07:39:55
GONETS M04 28 Nov 08:07:42 08:16:25 71° 93° (E) 08:25:12
CUTE 1.7 + AOD 2 28 Nov 08:16:36 08:18:56 14° 92° (E) 08:21:16 437.475
BRITE-PL 28 Nov 08:21:49 08:24:17 15° 93° (E) 08:26:46 437.365/2234.400
Cubesat XI-IV 28 Nov 08:32:27 08:34:10 12° 301° (WNW) 08:35:54 437.490
HO-68 28 Nov 08:42:56 08:49:35 39° 98° (E) 08:56:10 435.675
SEEDS 28 Nov 08:45:22 08:48:58 26° 96° (E) 08:52:35 437.485
AAUSAT CUBESAT 2 28 Nov 08:57:06 09:00:41 26° 96° (E) 09:04:16 437.432
Oscar 11 28 Nov 09:01:53 09:04:23 15° 92° (E) 09:06:53 145.826/435.025
ANTELSAT 28 Nov 09:09:51 09:12:25 16° 66° (ENE) 09:15:00 437.575/2403.000
COMPASS 1 28 Nov 09:13:47 09:17:54 47° 99° (E) 09:22:00 437.405
CANX-2 28 Nov 09:16:29 09:20:48 79° 102° (ESE) 09:25:06 2200.000
GOMX 1 28 Nov 09:17:20 09:21:23 48° 100° (E) 09:25:34 467.674
NANOSAT C BR1 28 Nov 09:24:03 09:26:34 16° 66° (ENE) 09:29:05 145.865
DX 1 28 Nov 09:29:44 09:33:22 26° 96° (E) 09:36:59 434.975-435.025
BUGSAT 1 28 Nov 09:31:31 09:34:03 16° 66° (ENE) 09:36:34 437.445
UWE-3 28 Nov 09:31:43 09:34:28 16° 93° (E) 09:37:14 435.000/436.395/437.385
QB50P1 28 Nov 09:33:40 09:36:45 20° 67° (ENE) 09:39:50 145.935-145.965
CUBEBUG 2 28 Nov 09:36:19 09:39:39 22° 95° (E) 09:43:02 437.445
CUTE 1.7 + AOD 2 28 Nov 09:50:59 09:55:05 45° 287° (WNW) 09:59:11 437.475
POPSAT HIP 1 28 Nov 09:57:53 10:01:46 36° 71° (ENE) 10:05:40 437.405
BRITE-PL 28 Nov 09:59:08 10:02:58 38° 288° (WNW) 10:06:54 437.365/2234.400
ZACube-1 28 Nov 10:00:16 10:04:00 29° 97° (E) 10:07:48 437.345
TIGRISAT 28 Nov 10:00:27 10:04:36 56° 74° (ENE) 10:08:47 435.000
DOVE 4 28 Nov 10:01:21 10:05:32 71° 284° (WNW) 10:09:53 437.250
GONETS M04 28 Nov 10:07:13 10:14:01 24° 293° (WNW) 10:20:53
VELOX 1 28 Nov 10:10:54 10:14:25 23° 95° (E) 10:17:55 145.980
UNISAT 6 28 Nov 10:15:28 10:19:43 87° 76° (ENE) 10:24:01 437.425
CINEMA 3 28 Nov 10:18:16 10:22:31 77° 284° (WNW) 10:26:56 145.822/145.860
ESTCUBE 1 28 Nov 10:20:51 10:21:56 11° 90° (E) 10:23:00 437.505/2401.250
SEEDS 28 Nov 10:21:13 10:24:42 25° 291° (WNW) 10:28:11 437.485
DELFI C3 28 Nov 10:24:21 10:28:29 70° 284° (WNW) 10:32:36 145.870
UKube-1 28 Nov 10:27:07 10:31:27 70° 285° (WNW) 10:35:44 .
HO-68 28 Nov 10:30:42 10:37:12 39° 295° (WNW) 10:43:40 435.675
50 SAT 28 Nov 10:31:20 10:34:58 31° 97° (E) 10:38:37 437.505
POLYITAN 1 28 Nov 10:32:39 10:36:54 86° 257° (WSW) 10:41:10 437.675
AAUSAT CUBESAT 2 28 Nov 10:32:50 10:36:15 24° 291° (WNW) 10:39:41 437.432
QB50P2 28 Nov 10:33:36 10:37:51 84° 257° (WSW) 10:42:08 145.880/145.840
FUNcube-1 28 Nov 10:34:11 10:38:27 73° 102° (ESE) 10:42:47 145.935
Oscar 11 28 Nov 10:36:37 10:40:46 44° 287° (WNW) 10:44:54 145.826/435.025
DUCHIFAT 1 28 Nov 10:37:55 10:42:10 76° 258° (WSW) 10:46:25 145.980
AISAT 28 Nov 10:38:12 10:42:29 47° 100° (E) 10:46:44 437.250
CUBEBUG 1 28 Nov 10:42:22 10:45:22 18° 93° (E) 10:48:20 437.445
ANTELSAT 28 Nov 10:44:51 10:48:53 42° 261° (W) 10:52:57 437.575/2403.000
COMPASS 1 28 Nov 10:50:54 10:53:14 15° 295° (WNW) 10:55:33 437.405
GOMX 1 28 Nov 10:57:06 10:59:10 14° 294° (WNW) 11:01:15 467.674
NANOSAT C BR1 28 Nov 10:58:02 11:02:05 43° 261° (W) 11:06:09 145.865
HUMSAT D 28 Nov 10:59:43 11:03:55 86° 103° (ESE) 11:08:09 437.325/437.525
SO-50 28 Nov 11:00:58 11:04:38 21° 45° (NE) 11:08:20 436.795
BUGSAT 1 28 Nov 11:05:08 11:09:11 43° 261° (W) 11:13:14 437.445
DX 1 28 Nov 11:05:56 11:09:32 26° 292° (WNW) 11:13:06 434.975-435.025
UWE-3 28 Nov 11:07:09 11:11:08 39° 288° (WNW) 11:15:13 435.000/436.395/437.385
QB50P1 28 Nov 11:08:35 11:12:25 33° 263° (W) 11:16:16 145.935-145.965
CUBEBUG 2 28 Nov 11:12:38 11:16:22 30° 289° (WNW) 11:20:11 437.445
POPSAT HIP 1 28 Nov 11:34:56 11:37:47 17° 266° (W) 11:40:39 437.405
ZACube-1 28 Nov 11:36:55 11:40:14 23° 291° (WNW) 11:43:36 437.345
TISAT 1 28 Nov 11:37:39 11:40:32 18° 94° (E) 11:43:24 437.305
TIGRISAT 28 Nov 11:40:37 11:41:43 11° 269° (W) 11:42:50 435.000
VELOX 1 28 Nov 11:47:10 11:51:00 30° 291° (WNW) 11:54:49 145.980
ESTCUBE 1 28 Nov 11:54:43 11:59:14 66° 285° (WNW) 12:03:41 437.505/2401.250
SPROUT 28 Nov 11:55:13 11:58:47 25° 96° (E) 12:02:21 437.525
50 SAT 28 Nov 12:07:09 12:10:04 19° 292° (WNW) 12:12:59 437.505
AISAT 28 Nov 12:16:08 12:18:43 16° 295° (WNW) 12:21:18 437.250
CUBEBUG 1 28 Nov 12:17:51 12:21:51 36° 289° (WNW) 12:25:49 437.445
CUSAT 1 28 Nov 12:21:50 12:23:59 22° 94° (E) 12:26:06 437.405
YUBILEINY 28 Nov 12:29:35 12:36:53 29° 70° (ENE) 12:44:07 435.215
Oscar 19 28 Nov 12:31:03 12:35:48 40° 70° (ENE) 12:40:34 437.125/150
SO-50 28 Nov 12:40:45 12:45:31 55° 243° (WSW) 12:50:18 436.795
BEESAT 28 Nov 12:42:01 12:44:29 14° 91° (E) 12:46:57 436.000
Gurwin Techsat 1B 28 Nov 12:42:03 12:43:52 12° 59° (ENE) 12:45:42 435.225
AUBIESAT-1 28 Nov 12:57:15 13:00:55 21° 98° (E) 13:04:28 437.475
DANDE 28 Nov 12:59:08 13:01:52 85° 99° (E) 13:04:28 436.750
M-CUBED/EXP-1 PRIME 28 Nov 13:04:02 13:08:12 27° 99° (E) 13:12:13 437.505
TISAT 1 28 Nov 13:12:39 13:16:28 34° 289° (WNW) 13:20:15 437.305
ITAMSAT 1 28 Nov 13:29:45 13:34:51 58° 73° (ENE) 13:39:58 435.822/435.867
SPROUT 28 Nov 13:31:17 13:34:47 25° 291° (WNW) 13:38:17 437.525
VERMONT LUNAR 28 Nov 13:33:03 13:36:29 43° 156° (SSE) 13:39:57 437.305
PHONESAT 2.4 28 Nov 13:33:17 13:36:38 33° 153° (SSE) 13:40:00 2401.200-2431.200
ITUPSAT 1 28 Nov 13:37:37 13:42:19 53° 100° (E) 13:46:59 437.325
SWISSCUBE 28 Nov 13:47:24 13:52:13 76° 103° (ESE) 13:56:59 437.505
KKS-1 28 Nov 14:01:04 14:04:11 19° 94° (E) 14:07:18 437.445
RS-15 28 Nov 14:04:24 14:11:46 21° 101° (E) 14:19:03 29.354- 29.394
Oscar 19 28 Nov 14:11:21 14:15:16 22° 266° (W) 14:19:13 437.125/150
AO-7 28 Nov 14:15:01 14:21:41 28° 57° (ENE) 14:28:23 29.400- 29.500
HORYU 2 28 Nov 14:16:02 14:20:04 36° 71° (ENE) 14:24:08 437.375
Gurwin Techsat 1B 28 Nov 14:17:43 14:23:02 89° 256° (WSW) 14:28:23 435.225
BEESAT 28 Nov 14:17:58 14:22:40 57° 287° (WNW) 14:27:20 436.000
YUBILEINY 28 Nov 14:25:41 14:34:09 59° 269° (W) 14:42:34 435.215
AUBIESAT-1 28 Nov 14:31:23 14:36:01 43° 294° (WNW) 14:40:30 437.475
M-CUBED/EXP-1 PRIME 28 Nov 14:38:46 14:43:12 34° 295° (WNW) 14:47:30 437.505
MaSat-1 28 Nov 14:47:32 14:50:26 60° 295° (WNW) 14:53:06 437.345
STARS 28 Nov 14:50:09 14:54:21 43° 99° (E) 14:58:32 437.465
VERMONT LUNAR 28 Nov 15:11:17 15:14:53 73° 352° (N) 15:18:31 437.305
PHONESAT 2.4 28 Nov 15:11:32 15:15:15 83° 350° (N) 15:18:59 2401.200-2431.200
ITAMSAT 1 28 Nov 15:11:33 15:14:41 16° 268° (W) 15:17:51 435.822/435.867
ITUPSAT 1 28 Nov 15:16:49 15:19:45 16° 296° (WNW) 15:22:40 437.325
O/OREOS (USA 219) 28 Nov 15:23:26 15:27:53 64° 67° (ENE) 15:32:19 437.305
SWISSCUBE 28 Nov 15:27:42 15:29:25 12° 299° (WNW) 15:31:07 437.505
JAS-2 28 Nov 15:30:28 15:36:42 28° 62° (ENE) 15:42:59 435.910
KKS-1 28 Nov 15:36:52 15:40:56 37° 289° (WNW) 15:45:01 437.445
HORYU 2 28 Nov 15:53:41 15:56:50 19° 266° (W) 16:00:01 437.375
AO-7 28 Nov 16:05:36 16:13:49 67° 255° (WSW) 16:22:07 29.400- 29.500
RS-15 28 Nov 16:11:33 16:22:33 88° 300° (WNW) 16:33:34 29.354- 29.394
STARS 28 Nov 16:27:43 16:30:29 17° 295° (WNW) 16:33:14 437.465
Cubesat XI-IV 28 Nov 16:32:56 16:36:17 17° 62° (ENE) 16:39:38 437.490
VERMONT LUNAR 28 Nov 16:49:52 16:53:30 78° 10° (N) 16:57:08 437.305
PHONESAT 2.4 28 Nov 16:50:28 16:54:11 71° 6° (N) 16:57:54 2401.200-2431.200
MOZHAYETS 4 28 Nov 17:01:22 17:05:52 47° 99° (E) 17:10:21
O/OREOS (USA 219) 28 Nov 17:05:41 17:06:40 11° 263° (W) 17:07:39 437.305
CUTE-I 28 Nov 17:11:38 17:16:31 37° 69° (ENE) 17:21:24 437.470
JAS-2 28 Nov 17:13:27 17:21:03 66° 259° (W) 17:28:54 435.910
Cubesat XI-IV 28 Nov 18:10:31 18:15:50 63° 258° (WSW) 18:21:10 437.490
GONETS M04 28 Nov 18:20:02 18:27:47 33° 71° (ENE) 18:35:26
AIST 1 28 Nov 18:25:05 18:27:12 13° 85° (E) 18:29:20
RS-15 28 Nov 18:27:30 18:36:34 29° 326° (NW) 18:45:46 29.354- 29.394
VERMONT LUNAR 28 Nov 18:28:28 18:31:52 38° 206° (SSW) 18:35:14 437.305
PHONESAT 2.4 28 Nov 18:29:20 18:32:57 51° 202° (SSW) 18:36:33 2401.200-2431.200
PCSat 28 Nov 18:32:13 18:37:07 36° 110° (ESE) 18:42:03 145.827
MOZHAYETS 4 28 Nov 18:39:43 18:42:42 17° 295° (WNW) 18:45:40
PRISM 28 Nov 18:46:21 18:50:34 68° 285° (WNW) 18:54:44 437.425
CUBESAT XI-V 28 Nov 18:51:06 18:55:37 49° 99° (E) 19:00:05 437.345
CUTE-I 28 Nov 18:52:10 18:56:37 26° 265° (W) 19:01:05 437.470
STRAND 1 28 Nov 18:54:30 18:59:26 48° 100° (E) 19:04:19 437.568
JAS-2 28 Nov 19:06:01 19:07:20 10° 276° (W) 19:08:40 435.910
BEESAT 3 28 Nov 19:06:35 19:10:24 40° 115° (ESE) 19:14:18 437.485
HO-68 28 Nov 19:10:59 19:16:46 27° 61° (ENE) 19:22:34 435.675
BEESAT 2 28 Nov 19:24:18 19:28:19 57° 117° (ESE) 19:32:26 435.950
BRITE-PL 28 Nov 19:31:35 19:35:00 19° 68° (ENE) 19:38:15 437.365/2234.400
SEEDS 28 Nov 19:37:46 19:40:27 17° 66° (ENE) 19:43:09 437.485
AAUSAT CUBESAT 2 28 Nov 19:48:30 19:51:07 16° 66° (ENE) 19:53:45 437.432
Oscar 11 28 Nov 19:57:38 19:58:40 11° 63° (ENE) 19:59:43 145.826/435.025
AIST 1 28 Nov 20:00:09 20:04:23 47° 281° (W) 20:08:40
COMPASS 1 28 Nov 20:04:51 20:08:25 28° 70° (ENE) 20:12:00 437.405
CANX-2 28 Nov 20:08:34 20:12:36 47° 73° (ENE) 20:16:40 2200.000
PHONESAT 2.4 28 Nov 20:09:41 20:11:12 12° 217° (SW) 20:12:43 2401.200-2431.200
AIST 2 28 Nov 20:12:07 20:16:20 89° 301° (WNW) 20:20:38 435.215
